sat.trackr.live / text

‹ back to catalog

STARLINK-11404 [DTC]

NORAD 62019 · 2024-213M

PAYLOAD ACTIVE UNKNOWN

§ Identity

Operator
Country
US
Launch date
2024-11-18
Launch site
AFWTR
Launch vehicle
Mass (kg)
RCS (m²)

Purposes: comms

External: N2YO · Heavens-Above · Gunter

§ Orbital elements

Epoch: 2026-05-25T01:10:16.391712Z

Period
91.73 min
Inclination
53.1573°
Eccentricity
0.0001104
Mean motion
15.69752029 rev/d
Perigee alt
358.9 km
Apogee alt
360.4 km
Semi-major
6,737.7 km
B*
1.1215e-3
RAAN
25.1772°
Arg perigee
43.7699°
Mean anomaly
316.3407°
Rev number
8,690

§ Raw data

STARLINK-11404 [DTC]1 62019U 24213M   26145.04880083  .00137798  00000+0  11215-2 0  99952 62019  53.1573  25.1772 0001104  43.7699 316.3407 15.69752029 86905

JSON: /api/v1/satellites/62019 · /tle

For live sub-satellite position, see the globe view (requires WebGL).

§ Visibility from observer

Set your observer location to see the next 7 days of passes ≥ 10°. The values pass through the URL so the page stays shareable.

No JS? Fill the form by hand. The geolocation button needs JavaScript.